Tracking 19817 objects as of 19-Aug-2019
HD Live streaming from Space Station
objects crossing your sky now

COSMOS 2251 DEB

Track COSMOS 2251 DEB now!
10-day predictions


NORAD ID: 34292
Int'l Code: 1993-036MN
Perigee: 598.9 km
Apogee: 691.3 km
Inclination: 74.1 °
Period: 97.5 minutes
Semi major axis: 7016 km
RCS: 0.0294 m2 (small)
Launch date: June 16, 1993
Source: Commonwealth of Independent States (former USSR) (CIS)
Launch site: PLESETSK MISSILE AND SPACE COMPLEX (PKMTR)

Note: This is SATELLITE DEBRIS
aabbcc
Your satellite tracking list
Your tracking list is empty




NASA's NSSDC Master Catalog

Two Line Element Set (TLE):
1 34292U 93036MN  19230.91220695 +.00000579 +00000-0 +83728-4 0  9993
2 34292 074.0598 193.2450 0065890 133.9632 226.7005 14.77265986561340
Source of the keplerian elements: AFSPC